Tracking 29892 objects as of 21-Nov-2024
HD Live streaming from Space Station
objects crossing your sky now

THORAD DELTA 1 DEB

Track THORAD DELTA 1 DEB now!
10-day predictions


NORAD ID: 8179
Int'l Code: 1974-089AV
Perigee: 1,460.5 km
Apogee: 1,619.4 km
Inclination: 101.5 °
Period: 116.7 minutes
Semi major axis: 7910 km
RCS: 0.1242 m2 (medium)
Launch date: November 15, 1974
Source: United States (US)
Launch site: AIR FORCE WESTERN TEST RANGE (AFWTR)

Note: This is SATELLITE DEBRIS
Your satellite tracking list
Your tracking list is empty




NASA's NSSDC Master Catalog

Two Line Element Set (TLE):
1 08179U 74089AV  24325.86505378  .00000070  00000-0  88943-3 0  9993
2 08179 101.4759 103.5551 0100441 245.9628 270.6119 12.33843708252172
Source of the keplerian elements: AFSPC